Location: 81360 Arifat, France
(43.7204°N, 2.3408°E)
Time: 02:56:26
(UTC+01:00)

ACS3 Solar Sail - Pass Details

Date: 16 October 2025
Orbit: 909 x 993 km, 97.3° (Epoch: 13 November)

Event Time Altitude Azimuth Distance (km) Brightness Sun altitude
Rises 05:25:13 0° 14° (NNE) 3,550 5.1 -29.6°
Reaches altitude 10° 05:27:40 10° 17° (NNE) 2,606 4.4 -29.2°
Maximum altitude 05:33:27 68° 100° (E) 982 1.9 -28.2°
Enters shadow 05:36:21 31° 175° (S) 1,559 2.7 -27.7°
